SCOUT A R/B

Satellite information

Favourite Embed

Satellite Type and Status

ROCKET BODYIN ORBIT

Key statistics

Satellite SCOUT A R/B at a glance.

Uptime

20198

Days in orbit

Revolutions

≈ 13.5

Per day

Orbit

SSO

Sun Synchronous Orbit

Inclination

90.0

Latest

Satellite identification and parameters

Extended collection of information and parameters for SCOUT A R/B.

Object identification

Identified? True

Debris? False

Object name: SCOUT A R/B

International designator: 1970-067B

Object number (NORAD): 4515

Object ID (CCSDS): 4515

Country: UNITED STATES OF AMERICA (US)

Current information (Y/N): Y

RCS size: MEDIUM

Orbital parameters

Period: 106.695 minutes

Inclination: 90.0065 deg

SMA: 7451.736 km

Apoapsis: 1203.411 km

Periapsis: 943.792 km

RAAN: 234.0538 deg

Eccentricy: 0.01742009

Argument of periapsis: 22.9957 deg

Mean anomaly: 34.4032 deg

Mean motion: 13.49635624 rev/day

Mean motion (dot): 0.00000169 rev/day2

B* drag term: 0.00022985913 1/REarth

Two-line elements (TLE)

Creation date: Dec. 14, 2025, 3:07 a.m.

Reference frame: TEME

Reference center: EARTH

Epoch: Dec. 13, 2025, 3:31 p.m. UTC

TLE line 0: 0 SCOUT A R/B

TLE line 1: 1 04515U 70067B 25347.64710736 .00000169 00000-0 22986-3 0 9996

TLE line 2: 2 04515 90.0065 234.0538 0174201 22.9957 34.4032 13.49635624720313

Live tracking on map

Real-time ground track for satellite SCOUT A R/B.

In-orbit conjunctions

A list of the most updated potential collisions computed for object SCOUT A R/B.

Target Orbit TCA Probability of collision Miss distance Type
SL-8 DEB LEO 2025-11-11 07:59:33 0.0002023231 217.0 (m) DEBRIS
FENGYUN 1C DEB SSO 2024-11-14 10:39:13 0.0002360639 74.0 (m) DEBRIS
FENGYUN 1C DEB SSO 2024-11-13 05:23:30 0.0001136627 540.0 (m) DEBRIS

Associated space launch

The Transit-O series of satellites that closely followed the design of Transit 5C-1 were also called “Oscars” (Oscar is the phonetic alphabet for “O”, i. e., operational). They were also called NNS (Navy Navigation Satellite) or shortened NavSat.

SCOUT A R/B was lifted into orbit during the mission ‘Scout A | Transit-O 19’, on board a Scout A space rocket.

The launch took place on Aug. 27, 1970, 1:23 p.m. from Space Launch Complex 5.

For more information about the launch, click the button.

Launch to space Scout A | Transit-O 19
Scout A | Transit-O 19

Agency: N/A

Status: Launch Successful

Launch date: Aug. 27, 1970, 1:23 p.m. UTC

Rocket: Scout A

Launch pad: Space Launch Complex 5

Location: Vandenberg SFB, CA, USA

...

Latest news about this satellite

There are no fresh news available about this satellite. Check back as we update our databases every day.


Newsletter sign-up

Weekly statistics, charts and insights to help you stay on top of the space industry.